[TLELIST] Archives

 

[list_settings.list_name] Current TLEs

October 4th 2021 PST

HST 1 20580U 90037B 21276.80907398 .00000984 00000-0 48425-4 0 9994 2 20580 28.4701 68.0634 0002718 145.9373 356.2969 15.09760495527387 ISS (ZARYA) 1 25544U 98067A 21277.45423611 .00004313 00000-0 86636-4 0 9999 2 25544 51.6458 162.4535 0004045 56.1498 288.7564 15.48924269305528 CXO 1 25867U 99040B 21279.18173032 .00001054 00000-0 00000-0 0 9996 2 25867 52.3919 250.4236 8487795 227.4311 0.4970 0.37816563 10852 ____________________________________________________________________ These 2-Line ...Continue Reading

[list_settings.list_name] Current TLEs

October 3rd 2021 PST

HST 1 20580U 90037B 21275.81673951 .00001045 00000-0 52154-4 0 9992 2 20580 28.4700 74.6305 0002749 135.8216 2.2470 15.09759136527231 ISS (ZARYA) 1 25544U 98067A 21276.19076174 .00005776 00000-0 11325-3 0 9993 2 25544 51.6454 168.6988 0004107 53.3446 81.6478 15.48913355305332 CXO 1 25867U 99040B 21279.18156048 .00001054 00000-0 00000+0 0 9993 2 25867 52.3918 250.4236 8487804 227.4312 0.4753 0.37815922 21997 ____________________________________________________________________ These 2-Line ...Continue Reading

[list_settings.list_name] Current TLEs

October 2nd 2021 PST

HST 1 20580U 90037B 21275.16030624 .00001064 00000-0 53306-4 0 9995 2 20580 28.4699 78.9747 0002764 129.0605 34.1340 15.09758148527400 ISS (ZARYA) 1 25544U 98067A 21275.16186654 .00003909 00000-0 79362-4 0 9996 2 25544 51.6457 173.7885 0003812 50.4043 103.6045 15.48894278305170 CXO 1 25867U 99040B 21276.53592608 .00001090 00000-0 00000-0 0 9996 2 25867 52.4936 250.6009 8485958 227.3590 0.3833 0.37811977 10849 ____________________________________________________________________ These 2-Line ...Continue Reading

[list_settings.list_name] Current TLEs

October 1st 2021 PST

HST 1 20580U 90037B 21273.81193127 .00001057 00000-0 52853-4 0 9991 2 20580 28.4698 87.8983 0002801 115.5815 264.4960 15.09755843527196 ISS (ZARYA) 1 25544U 98067A 21274.25816815 .00005249 00000-0 10377-3 0 9993 2 25544 51.6450 178.2593 0004287 46.8394 104.8068 15.48887264305034 CXO 1 25867U 99040B 21276.53592608 .00001090 00000-0 00000-0 0 9996 2 25867 52.4936 250.6009 8485958 227.3590 0.3833 0.37811977 10849 ____________________________________________________________________ These 2-Line ...Continue Reading

[list_settings.list_name] Current TLEs

September 30th 2021 PST

HST 1 20580U 90037B 21272.25165212 .00001003 00000-0 49629-4 0 9990 2 20580 28.4696 98.2242 0002819 99.9429 63.0242 15.09753135526695 ISS (ZARYA) 1 25544U 98067A 21273.48726090 .00001212 00000-0 30298-4 0 9993 2 25544 51.6456 182.0705 0003968 45.0544 125.1915 15.48872009304915 CXO 1 25867U 99040B 21273.89166873 .00001008 00000-0 00000-0 0 9992 2 25867 52.5638 250.7358 8482270 227.3051 0.4912 0.37806109 10843 ____________________________________________________________________ These 2-Line ...Continue Reading

[list_settings.list_name] Current TLEs

September 29th 2021 PST

HST 1 20580U 90037B 21271.26007023 .00000992 00000-0 48950-4 0 9997 2 20580 28.4696 104.7863 0002822 90.0257 72.9024 15.09751595526541 ISS (ZARYA) 1 25544U 98067A 21272.48715278 -.00004439 00000-0 -72770-4 0 9995 2 25544 51.6449 187.0180 0004231 37.0778 312.9467 15.48863107304752 CXO 1 25867U 99040B 21273.89166873 .00001008 00000-0 00000-0 0 9992 2 25867 52.5638 250.7358 8482270 227.3051 0.4912 0.37806109 10843 ____________________________________________________________________ These 2-Line ...Continue Reading

[list_settings.list_name] Current TLEs

September 28th 2021 PST

HST 1 20580U 90037B 21270.85678500 .00000983 00000-0 48406-4 0 9991 2 20580 28.4695 107.4553 0002825 86.1093 40.5763 15.09750961526483 ISS (ZARYA) 1 25544U 98067A 21271.28780583 .00037716 00000-0 69188-3 0 9993 2 25544 51.6451 192.9523 0003620 33.1017 105.0724 15.48896784304579 CXO 1 25867U 99040B 21273.89121276 .00001008 00000-0 00000+0 0 9999 2 25867 52.5638 250.7357 8482260 227.3050 0.4290 0.37806423 21974 ____________________________________________________________________ These 2-Line ...Continue Reading

[list_settings.list_name] Current TLEs

September 27th 2021 PST

HST 1 20580U 90037B 21269.27698563 .00000983 00000-0 48419-4 0 9990 2 20580 28.4695 117.9102 0002813 70.2442 93.0525 15.09748672526247 ISS (ZARYA) 1 25544U 98067A 21270.32086323 .00001513 00000-0 35800-4 0 9999 2 25544 51.6444 197.7309 0003955 33.3388 109.6648 15.48858552304420 CXO 1 25867U 99040B 21271.24653120 .00000873 00000-0 00000-0 0 9994 2 25867 52.6198 250.8492 8478409 227.2638 0.4510 0.37806693 10835 ____________________________________________________________________ These 2-Line ...Continue Reading

[list_settings.list_name] Current TLEs

September 26th 2021 PST

HST 1 20580U 90037B 21268.92015494 .00000975 00000-0 47947-4 0 9993 2 20580 28.4695 120.2716 0002807 66.7978 313.2464 15.09748186526454 ISS (ZARYA) 1 25544U 98067A 21269.35366397 .00026732 00000-0 49376-3 0 9994 2 25544 51.6431 202.5150 0003984 24.8666 121.5996 15.48877269304279 CXO 1 25867U 99040B 21271.24634953 .00000872 00000-0 00000-0 0 9996 2 25867 52.6196 250.8492 8478422 227.2639 0.4267 0.37806201 10822 ____________________________________________________________________ These 2-Line ...Continue Reading

[list_settings.list_name] Current TLEs

September 25th 2021 PST

HST 1 20580U 90037B 21267.88032319 .00000908 00000-0 43895-4 0 9996 2 20580 28.4695 127.1529 0002788 56.3207 60.9407 15.09746519526035 ISS (ZARYA) 1 25544U 98067A 21268.32184350 .00025051 00000-0 46357-3 0 9996 2 25544 51.6438 207.6181 0003940 21.7921 127.5844 15.48861822304117 CXO 1 25867U 99040B 21271.24604701 .00000872 00000-0 00000+0 0 9993 2 25867 52.6197 250.8491 8478405 227.2638 0.3855 0.37806748 21967 ____________________________________________________________________ These 2-Line ...Continue Reading
  • This mailing list is a public mailing list - anyone may join or leave, at any time.
  • This mailing list is announce-only.

International Space Station (ISS) / Hubble Space Telescope (HST) / Chandra X-Ray Observatory Orbital Data via EMAIL

Privacy Policy:

Private list